GLOBALSTAR M095 [+] (39077 NORAD) Tracking and Keplerian Element Data

This shows tracking and keplerian element data for the satellite.

Feedback or suggestion? Click here.




ElementValue
Catalog39077
NameGLOBALSTAR M095 [+]
Epoch Orbit26630
Epoch Day319.49965888
Epoch Year2018
RAAN79.5617
Inclination51.9806
Eccentricity2.36E-05
Argument of Perigee184.3004
Mean Anonmoly175.7861
Mean Motion12.62260863
Decay Rate-1.2E-06
L11 39077U 13005F 18319.49965888 -.00000120 00000-0 -87947-4 0 9998
L22 39077 51.9806 79.5617 0000236 184.3004 175.7861 12.62260863266301

Live tracking and technical data element details for GLOBALSTAR M095 [+] (NORAD 39077). GLOBALSTAR M095 [+] can be tracked NOW for your location showing map with azimuth and elevation plus other details from your city location.

Track the satellite on the map from your city or location and see movement details for azimuth, elevation, latitude, longitude, range, height, and movement on the map or in text.







IsCatalogInMostPopularTable: catalog: 39077, numindb: 115
Update: records affected: 1



GetName: 39077 GLOBALSTAR M095 [+]

Hit Count: updated at: Fri, 16 Nov 2018 12:11:31 GMT